contact:dominique.lefevre@mio.osupytheas.fr, maurice.libes@osupytheas.fr, didier.mallarino@osupytheas.fr
Project:EMSO http://www.emso-fr.org/EMSO-France
Depth: 2436.0 m
Title:EMSO Ligure Ouest : Data MII capteur MICROCAT
DateTime_Computer,Latitude,Longitude,Temperature,Conductivity,Pressure,DateTime_Instrument
DateTime_Computer,Latitude,Longitude,degC,S m-1,dbar,DateTime_Instrument
2021-03-06T00:00:30Z,42.805,6.029,13.2983,4.60001,2470.194,2021-3-06T02:01:35Z
2021-03-06T00:03:33Z,42.805,6.029,13.2979,4.59990,2470.18,2021-3-06T02:04:38Z
2021-03-06T00:06:36Z,42.805,6.029,13.2982,4.59994,2470.217,2021-3-06T02:07:41Z
2021-03-06T00:09:39Z,42.805,6.029,13.2983,4.59988,2470.217,2021-3-06T02:10:44Z
2021-03-06T00:12:42Z,42.805,6.029,13.2982,4.59987,2470.18,2021-3-06T02:13:47Z
2021-03-06T00:15:45Z,42.805,6.029,13.2982,4.59994,2470.24,2021-3-06T02:16:50Z
2021-03-06T00:18:48Z,42.805,6.029,13.2982,4.59991,2470.217,2021-3-06T02:19:54Z
2021-03-06T00:21:51Z,42.805,6.029,13.2980,4.59994,2470.24,2021-3-06T02:22:57Z
2021-03-06T00:24:54Z,42.805,6.029,13.2988,4.59990,2470.18,2021-3-06T02:26:00Z
2021-03-06T00:27:58Z,42.805,6.029,13.2985,4.59990,2470.203,2021-3-06T02:29:03Z
2021-03-06T00:31:01Z,42.805,6.029,13.2987,4.59987,2470.194,2021-3-06T02:32:06Z
2021-03-06T00:34:04Z,42.805,6.029,13.2982,4.59987,2470.18,2021-3-06T02:35:09Z
2021-03-06T00:37:07Z,42.805,6.029,13.2983,4.59993,2470.194,2021-3-06T02:38:12Z
2021-03-06T00:40:10Z,42.805,6.029,13.2980,4.59991,2470.18,2021-3-06T02:41:15Z
2021-03-06T00:43:13Z,42.805,6.029,13.2984,4.59990,2470.217,2021-3-06T02:44:19Z
2021-03-06T00:46:16Z,42.805,6.029,13.2979,4.59996,2470.203,2021-3-06T02:47:22Z
2021-03-06T00:49:19Z,42.805,6.029,13.2982,4.60005,2470.24,2021-3-06T02:50:25Z
2021-03-06T00:52:22Z,42.805,6.029,13.2988,4.60003,2470.18,2021-3-06T02:53:28Z
2021-03-06T00:55:26Z,42.805,6.029,13.2983,4.60003,2470.203,2021-3-06T02:56:31Z
2021-03-06T00:58:29Z,42.805,6.029,13.2987,4.59999,2470.227,2021-3-06T02:59:34Z
2021-03-06T01:01:32Z,42.805,6.029,13.2994,4.60003,2470.203,2021-3-06T03:02:37Z
2021-03-06T01:04:35Z,42.805,6.029,13.2986,4.60020,2470.18,2021-3-06T03:05:40Z
2021-03-06T01:07:38Z,42.805,6.029,13.2982,4.59999,2470.227,2021-3-06T03:08:44Z
2021-03-06T01:10:41Z,42.805,6.029,13.2984,4.60009,2470.217,2021-3-06T03:11:47Z
2021-03-06T01:13:44Z,42.805,6.029,13.2986,4.59993,2470.217,2021-3-06T03:14:50Z
2021-03-06T01:16:47Z,42.805,6.029,13.2991,4.59994,2470.156,2021-3-06T03:17:53Z
2021-03-06T01:19:51Z,42.805,6.029,13.2994,4.60000,2470.18,2021-3-06T03:20:56Z
2021-03-06T01:22:54Z,42.805,6.029,13.2993,4.59994,2470.24,2021-3-06T03:23:59Z
2021-03-06T01:25:57Z,42.805,6.029,13.2983,4.60001,2470.171,2021-3-06T03:27:02Z
2021-03-06T01:29:00Z,42.805,6.029,13.2979,4.59995,2470.194,2021-3-06T03:30:05Z
2021-03-06T01:32:03Z,42.805,6.029,13.2979,4.59993,2470.24,2021-3-06T03:33:08Z
2021-03-06T01:35:06Z,42.805,6.029,13.2982,4.59994,2470.194,2021-3-06T03:36:12Z
2021-03-06T01:38:09Z,42.805,6.029,13.2982,4.59991,2470.24,2021-3-06T03:39:15Z
2021-03-06T01:41:12Z,42.805,6.029,13.2977,4.59992,2470.217,2021-3-06T03:42:18Z
2021-03-06T01:44:16Z,42.805,6.029,13.2982,4.59992,2470.18,2021-3-06T03:45:21Z
2021-03-06T01:47:19Z,42.805,6.029,13.2980,4.59994,2470.203,2021-3-06T03:48:24Z
2021-03-06T01:50:22Z,42.805,6.029,13.2979,4.60006,2470.24,2021-3-06T03:51:27Z
2021-03-06T01:53:25Z,42.805,6.029,13.2980,4.60006,2470.156,2021-3-06T03:54:30Z
2021-03-06T01:56:28Z,42.805,6.029,13.2979,4.59988,2470.18,2021-3-06T03:57:33Z
2021-03-06T01:59:31Z,42.805,6.029,13.2979,4.59988,2470.171,2021-3-06T04:00:37Z
2021-03-06T02:02:34Z,42.805,6.029,13.2979,4.59988,2470.194,2021-3-06T04:03:40Z
2021-03-06T02:05:37Z,42.805,6.029,13.2979,4.59988,2470.133,2021-3-06T04:06:43Z
2021-03-06T02:08:40Z,42.805,6.029,13.2979,4.59997,2470.156,2021-3-06T04:09:46Z
2021-03-06T02:11:44Z,42.805,6.029,13.2983,4.60020,2470.203,2021-3-06T04:12:49Z
2021-03-06T02:14:47Z,42.805,6.029,13.2983,4.60003,2470.18,2021-3-06T04:15:52Z
2021-03-06T02:17:50Z,42.805,6.029,13.2979,4.59990,2470.156,2021-3-06T04:18:55Z
2021-03-06T02:20:53Z,42.805,6.029,13.2976,4.60002,2470.194,2021-3-06T04:21:58Z
2021-03-06T02:23:56Z,42.805,6.029,13.2978,4.60000,2470.171,2021-3-06T04:25:01Z
2021-03-06T02:26:59Z,42.805,6.029,13.2981,4.60006,2470.156,2021-3-06T04:28:05Z
2021-03-06T02:30:02Z,42.805,6.029,13.2982,4.59991,2470.217,2021-3-06T04:31:08Z
2021-03-06T02:33:05Z,42.805,6.029,13.2976,4.59999,2470.18,2021-3-06T04:34:11Z
2021-03-06T02:36:09Z,42.805,6.029,13.2981,4.59995,2470.18,2021-3-06T04:37:14Z
2021-03-06T02:39:12Z,42.805,6.029,13.2981,4.59991,2470.156,2021-3-06T04:40:17Z
2021-03-06T02:42:15Z,42.805,6.029,13.2979,4.59988,2470.194,2021-3-06T04:43:20Z
2021-03-06T02:45:18Z,42.805,6.029,13.2979,4.59995,2470.133,2021-3-06T04:46:23Z
2021-03-06T02:48:21Z,42.805,6.029,13.2980,4.59991,2470.18,2021-3-06T04:49:26Z
2021-03-06T02:51:24Z,42.805,6.029,13.2983,4.59996,2470.18,2021-3-06T04:52:30Z
2021-03-06T02:54:27Z,42.805,6.029,13.2979,4.59996,2470.18,2021-3-06T04:55:33Z
2021-03-06T02:57:30Z,42.805,6.029,13.2980,4.59994,2470.156,2021-3-06T04:58:36Z
2021-03-06T03:00:33Z,42.805,6.029,13.2980,4.59986,2470.156,2021-3-06T05:01:39Z
2021-03-06T03:03:37Z,42.805,6.029,13.2979,4.59988,2470.18,2021-3-06T05:04:42Z
2021-03-06T03:06:40Z,42.805,6.029,13.2980,4.59997,2470.147,2021-3-06T05:07:45Z
2021-03-06T03:09:43Z,42.805,6.029,13.2978,4.59986,2470.194,2021-3-06T05:10:48Z
2021-03-06T03:12:46Z,42.805,6.029,13.2982,4.59987,2470.147,2021-3-06T05:13:51Z
2021-03-06T03:15:49Z,42.805,6.029,13.2984,4.59993,2470.124,2021-3-06T05:16:54Z
2021-03-06T03:18:52Z,42.805,6.029,13.2979,4.59999,2470.156,2021-3-06T05:19:58Z
2021-03-06T03:21:55Z,42.805,6.029,13.2982,4.60002,2470.156,2021-3-06T05:23:01Z
2021-03-06T03:24:58Z,42.805,6.029,13.2982,4.59998,2470.18,2021-3-06T05:26:04Z
2021-03-06T03:28:02Z,42.805,6.029,13.2980,4.59988,2470.171,2021-3-06T05:29:07Z
2021-03-06T03:31:05Z,42.805,6.029,13.2983,4.59992,2470.133,2021-3-06T05:32:10Z
2021-03-06T03:34:08Z,42.805,6.029,13.2984,4.59985,2470.156,2021-3-06T05:35:13Z
2021-03-06T03:37:11Z,42.805,6.029,13.2976,4.59991,2470.156,2021-3-06T05:38:16Z
2021-03-06T03:40:14Z,42.805,6.029,13.2979,4.59988,2470.171,2021-3-06T05:41:19Z
2021-03-06T03:43:17Z,42.805,6.029,13.2980,4.59986,2470.171,2021-3-06T05:44:23Z
2021-03-06T03:46:20Z,42.805,6.029,13.2981,4.59993,2470.156,2021-3-06T05:47:26Z
2021-03-06T03:49:23Z,42.805,6.029,13.2982,4.59992,2470.156,2021-3-06T05:50:29Z
2021-03-06T03:52:27Z,42.805,6.029,13.2979,4.59991,2470.147,2021-3-06T05:53:32Z
2021-03-06T03:55:30Z,42.805,6.029,13.2981,4.59993,2470.171,2021-3-06T05:56:35Z
2021-03-06T03:58:33Z,42.805,6.029,13.2982,4.59990,2470.18,2021-3-06T05:59:38Z
2021-03-06T04:01:36Z,42.805,6.029,13.2983,4.59992,2470.133,2021-3-06T06:02:41Z
2021-03-06T04:04:39Z,42.805,6.029,13.2983,4.59997,2470.133,2021-3-06T06:05:44Z
2021-03-06T04:07:42Z,42.805,6.029,13.2979,4.59989,2470.18,2021-3-06T06:08:47Z
2021-03-06T04:10:45Z,42.805,6.029,13.2979,4.59989,2470.11,2021-3-06T06:11:51Z
2021-03-06T04:13:48Z,42.805,6.029,13.2983,4.59991,2470.133,2021-3-06T06:14:54Z
2021-03-06T04:16:51Z,42.805,6.029,13.2982,4.59986,2470.156,2021-3-06T06:17:57Z
2021-03-06T04:19:55Z,42.805,6.029,13.2978,4.59992,2470.156,2021-3-06T06:21:00Z
2021-03-06T04:22:58Z,42.805,6.029,13.2979,4.59991,2470.156,2021-3-06T06:24:03Z
2021-03-06T04:26:01Z,42.805,6.029,13.2979,4.59991,2470.133,2021-3-06T06:27:06Z
2021-03-06T04:29:04Z,42.805,6.029,13.2979,4.59991,2470.133,2021-3-06T06:30:09Z
2021-03-06T04:32:07Z,42.805,6.029,13.2979,4.59990,2470.133,2021-3-06T06:33:12Z
2021-03-06T04:35:10Z,42.805,6.029,13.2979,4.59992,2470.156,2021-3-06T06:36:16Z
2021-03-06T04:38:13Z,42.805,6.029,13.2982,4.59991,2470.133,2021-3-06T06:39:19Z
2021-03-06T04:41:16Z,42.805,6.029,13.2979,4.59991,2470.147,2021-3-06T06:42:22Z
2021-03-06T04:44:20Z,42.805,6.029,13.2980,4.59988,2470.133,2021-3-06T06:45:25Z
2021-03-06T04:47:23Z,42.805,6.029,13.2978,4.59988,2470.171,2021-3-06T06:48:28Z
2021-03-06T04:50:26Z,42.805,6.029,13.2983,4.59990,2470.147,2021-3-06T06:51:31Z
2021-03-06T04:53:29Z,42.805,6.029,13.2982,4.59990,2470.096,2021-3-06T06:54:34Z
2021-03-06T04:56:32Z,42.805,6.029,13.2976,4.59996,2470.156,2021-3-06T06:57:37Z
2021-03-06T04:59:35Z,42.805,6.029,13.2979,4.60001,2470.133,2021-3-06T07:00:40Z
2021-03-06T05:02:38Z,42.805,6.029,13.2983,4.59986,2470.133,2021-3-06T07:03:44Z
2021-03-06T05:05:41Z,42.805,6.029,13.2983,4.59986,2470.133,2021-3-06T07:06:47Z
2021-03-06T05:08:44Z,42.805,6.029,13.2982,4.59990,2470.11,2021-3-06T07:09:50Z
2021-03-06T05:11:48Z,42.805,6.029,13.2980,4.59991,2470.11,2021-3-06T07:12:53Z
2021-03-06T05:14:51Z,42.805,6.029,13.2979,4.59992,2470.133,2021-3-06T07:15:56Z
2021-03-06T05:17:54Z,42.805,6.029,13.2979,4.59990,2470.147,2021-3-06T07:18:59Z
2021-03-06T05:20:57Z,42.805,6.029,13.2978,4.59993,2470.133,2021-3-06T07:22:02Z
2021-03-06T05:24:00Z,42.805,6.029,13.2981,4.59992,2470.11,2021-3-06T07:25:05Z
2021-03-06T05:27:03Z,42.805,6.029,13.2984,4.59996,2470.133,2021-3-06T07:28:09Z
2021-03-06T05:30:06Z,42.805,6.029,13.2982,4.59988,2470.133,2021-3-06T07:31:12Z
2021-03-06T05:33:09Z,42.805,6.029,13.2980,4.59987,2470.124,2021-3-06T07:34:15Z
2021-03-06T05:36:13Z,42.805,6.029,13.2982,4.59987,2470.171,2021-3-06T07:37:18Z
2021-03-06T05:39:16Z,42.805,6.029,13.2983,4.59988,2470.11,2021-3-06T07:40:21Z
2021-03-06T05:42:19Z,42.805,6.029,13.2979,4.59986,2470.147,2021-3-06T07:43:24Z
2021-03-06T05:45:22Z,42.805,6.029,13.2978,4.59986,2470.11,2021-3-06T07:46:27Z
2021-03-06T05:48:25Z,42.805,6.029,13.2982,4.59992,2470.087,2021-3-06T07:49:30Z
2021-03-06T05:51:28Z,42.805,6.029,13.2982,4.59991,2470.11,2021-3-06T07:52:34Z
2021-03-06T05:54:31Z,42.805,6.029,13.2980,4.59990,2470.11,2021-3-06T07:55:37Z
2021-03-06T05:57:34Z,42.805,6.029,13.2982,4.59986,2470.124,2021-3-06T07:58:40Z
2021-03-06T06:00:37Z,42.805,6.029,13.2978,4.59987,2470.11,2021-3-06T08:01:43Z
2021-03-06T06:03:41Z,42.805,6.029,13.2984,4.59991,2470.11,2021-3-06T08:04:46Z
2021-03-06T06:06:44Z,42.805,6.029,13.2982,4.59989,2470.124,2021-3-06T08:07:49Z
2021-03-06T06:09:47Z,42.805,6.029,13.2981,4.59991,2470.156,2021-3-06T08:10:52Z
2021-03-06T06:12:50Z,42.805,6.029,13.2982,4.59989,2470.133,2021-3-06T08:13:55Z
2021-03-06T06:15:53Z,42.805,6.029,13.2983,4.59991,2470.124,2021-3-06T08:16:58Z
2021-03-06T06:18:56Z,42.805,6.029,13.2981,4.59986,2470.087,2021-3-06T08:20:02Z
2021-03-06T06:21:59Z,42.805,6.029,13.2982,4.59987,2470.124,2021-3-06T08:23:05Z
2021-03-06T06:25:02Z,42.805,6.029,13.2982,4.59985,2470.11,2021-3-06T08:26:08Z
2021-03-06T06:28:06Z,42.805,6.029,13.2983,4.59986,2470.11,2021-3-06T08:29:11Z
2021-03-06T06:31:09Z,42.805,6.029,13.2980,4.59987,2470.11,2021-3-06T08:32:14Z
2021-03-06T06:34:12Z,42.805,6.029,13.2982,4.59985,2470.124,2021-3-06T08:35:17Z
2021-03-06T06:37:15Z,42.805,6.029,13.2983,4.59988,2470.063,2021-3-06T08:38:20Z
2021-03-06T06:40:18Z,42.805,6.029,13.2979,4.59986,2470.11,2021-3-06T08:41:23Z
2021-03-06T06:43:21Z,42.805,6.029,13.2981,4.59988,2470.11,2021-3-06T08:44:27Z
2021-03-06T06:46:24Z,42.805,6.029,13.2983,4.59984,2470.147,2021-3-06T08:47:30Z
2021-03-06T06:49:27Z,42.805,6.029,13.2977,4.59988,2470.087,2021-3-06T08:50:33Z
2021-03-06T06:52:30Z,42.805,6.029,13.2981,4.59986,2470.11,2021-3-06T08:53:36Z
2021-03-06T06:55:34Z,42.805,6.029,13.2979,4.59986,2470.11,2021-3-06T08:56:39Z
2021-03-06T06:58:37Z,42.805,6.029,13.2977,4.59986,2470.124,2021-3-06T08:59:42Z
2021-03-06T07:01:40Z,42.805,6.029,13.2983,4.59987,2470.1,2021-3-06T09:02:45Z
2021-03-06T07:04:43Z,42.805,6.029,13.2981,4.59986,2470.133,2021-3-06T09:05:48Z
2021-03-06T07:07:46Z,42.805,6.029,13.2979,4.59984,2470.073,2021-3-06T09:08:51Z
2021-03-06T07:10:49Z,42.805,6.029,13.2980,4.59985,2470.133,2021-3-06T09:11:55Z
2021-03-06T07:13:52Z,42.805,6.029,13.2981,4.59987,2470.1,2021-3-06T09:14:58Z
2021-03-06T07:16:55Z,42.805,6.029,13.2981,4.59988,2470.1,2021-3-06T09:18:01Z
2021-03-06T07:19:59Z,42.805,6.029,13.2983,4.59984,2470.087,2021-3-06T09:21:04Z
2021-03-06T07:23:02Z,42.805,6.029,13.2980,4.59988,2470.11,2021-3-06T09:24:07Z
2021-03-06T07:26:05Z,42.805,6.029,13.2982,4.59986,2470.124,2021-3-06T09:27:10Z
2021-03-06T07:29:08Z,42.805,6.029,13.2980,4.59986,2470.11,2021-3-06T09:30:13Z
2021-03-06T07:32:11Z,42.805,6.029,13.2979,4.59986,2470.087,2021-3-06T09:33:16Z
2021-03-06T07:35:14Z,42.805,6.029,13.2980,4.59988,2470.124,2021-3-06T09:36:20Z
2021-03-06T07:38:17Z,42.805,6.029,13.2982,4.59985,2470.087,2021-3-06T09:39:23Z
2021-03-06T07:41:20Z,42.805,6.029,13.2981,4.59985,2470.087,2021-3-06T09:42:26Z
2021-03-06T07:44:23Z,42.805,6.029,13.2978,4.59985,2470.11,2021-3-06T09:45:29Z
2021-03-06T07:47:27Z,42.805,6.029,13.2983,4.59985,2470.11,2021-3-06T09:48:32Z
2021-03-06T07:50:30Z,42.805,6.029,13.2983,4.59985,2470.11,2021-3-06T09:51:35Z
2021-03-06T07:53:33Z,42.805,6.029,13.2982,4.59985,2470.11,2021-3-06T09:54:38Z
2021-03-06T07:56:36Z,42.805,6.029,13.2983,4.59986,2470.1,2021-3-06T09:57:41Z
2021-03-06T07:59:39Z,42.805,6.029,13.2979,4.59986,2470.124,2021-3-06T10:00:44Z
2021-03-06T08:02:42Z,42.805,6.029,13.2979,4.59984,2470.124,2021-3-06T10:03:48Z
2021-03-06T08:05:45Z,42.805,6.029,13.2985,4.59985,2470.124,2021-3-06T10:06:51Z
2021-03-06T08:08:48Z,42.805,6.029,13.2984,4.59988,2470.1,2021-3-06T10:09:54Z
2021-03-06T08:11:52Z,42.805,6.029,13.2979,4.59986,2470.11,2021-3-06T10:12:57Z
2021-03-06T08:14:55Z,42.805,6.029,13.2983,4.59986,2470.11,2021-3-06T10:16:00Z
2021-03-06T08:17:58Z,42.805,6.029,13.2980,4.59986,2470.11,2021-3-06T10:19:03Z
2021-03-06T08:21:01Z,42.805,6.029,13.2979,4.59986,2470.087,2021-3-06T10:22:06Z
2021-03-06T08:24:04Z,42.805,6.029,13.2982,4.59986,2470.133,2021-3-06T10:25:09Z
2021-03-06T08:27:07Z,42.805,6.029,13.2981,4.59986,2470.11,2021-3-06T10:28:13Z
2021-03-06T08:30:10Z,42.805,6.029,13.2983,4.59985,2470.087,2021-3-06T10:31:16Z
2021-03-06T08:33:13Z,42.805,6.029,13.2982,4.59987,2470.087,2021-3-06T10:34:19Z
2021-03-06T08:36:16Z,42.805,6.029,13.2982,4.59986,2470.147,2021-3-06T10:37:22Z
2021-03-06T08:39:20Z,42.805,6.029,13.2982,4.59986,2470.133,2021-3-06T10:40:25Z
2021-03-06T08:42:23Z,42.805,6.029,13.2980,4.59984,2470.133,2021-3-06T10:43:28Z
2021-03-06T08:45:26Z,42.805,6.029,13.2980,4.59986,2470.133,2021-3-06T10:46:31Z
2021-03-06T08:48:29Z,42.805,6.029,13.2980,4.59987,2470.11,2021-3-06T10:49:34Z
2021-03-06T08:51:32Z,42.805,6.029,13.2982,4.59987,2470.133,2021-3-06T10:52:38Z
2021-03-06T08:54:35Z,42.805,6.029,13.2976,4.59985,2470.124,2021-3-06T10:55:41Z
2021-03-06T08:57:38Z,42.805,6.029,13.2979,4.59984,2470.124,2021-3-06T10:58:44Z
2021-03-06T09:00:41Z,42.805,6.029,13.2978,4.59986,2470.11,2021-3-06T11:01:47Z
2021-03-06T09:03:45Z,42.805,6.029,13.2985,4.59984,2470.133,2021-3-06T11:04:50Z
2021-03-06T09:06:48Z,42.805,6.029,13.2979,4.59983,2470.147,2021-3-06T11:07:53Z
2021-03-06T09:09:51Z,42.805,6.029,13.2980,4.59984,2470.124,2021-3-06T11:10:56Z
2021-03-06T09:12:54Z,42.805,6.029,13.2982,4.59983,2470.133,2021-3-06T11:13:59Z
2021-03-06T09:15:57Z,42.805,6.029,13.2982,4.59983,2470.133,2021-3-06T11:17:03Z
2021-03-06T09:19:00Z,42.805,6.029,13.2982,4.59985,2470.133,2021-3-06T11:20:06Z
2021-03-06T09:22:03Z,42.805,6.029,13.2979,4.59983,2470.133,2021-3-06T11:23:09Z
2021-03-06T09:25:06Z,42.805,6.029,13.2981,4.59983,2470.087,2021-3-06T11:26:12Z
2021-03-06T09:28:10Z,42.805,6.029,13.2981,4.59983,2470.147,2021-3-06T11:29:15Z
2021-03-06T09:31:13Z,42.805,6.029,13.2978,4.59986,2470.11,2021-3-06T11:32:18Z
2021-03-06T09:34:16Z,42.805,6.029,13.2977,4.59985,2470.156,2021-3-06T11:35:21Z
2021-03-06T09:37:19Z,42.805,6.029,13.2984,4.59983,2470.147,2021-3-06T11:38:24Z
2021-03-06T09:40:22Z,42.805,6.029,13.2981,4.59985,2470.11,2021-3-06T11:41:28Z
2021-03-06T09:43:25Z,42.805,6.029,13.2976,4.59982,2470.11,2021-3-06T11:44:31Z
2021-03-06T09:46:28Z,42.805,6.029,13.2984,4.59983,2470.11,2021-3-06T11:47:34Z
2021-03-06T09:49:31Z,42.805,6.029,13.2985,4.59983,2470.124,2021-3-06T11:50:37Z
2021-03-06T09:52:35Z,42.805,6.029,13.2980,4.59988,2470.133,2021-3-06T11:53:40Z
2021-03-06T09:55:38Z,42.805,6.029,13.2979,4.59991,2470.147,2021-3-06T11:56:43Z
2021-03-06T09:58:41Z,42.805,6.029,13.2983,4.59986,2470.156,2021-3-06T11:59:46Z
2021-03-06T10:01:44Z,42.805,6.029,13.2987,4.59983,2470.11,2021-3-06T12:02:49Z
2021-03-06T10:04:47Z,42.805,6.029,13.2980,4.59984,2470.133,2021-3-06T12:05:53Z
2021-03-06T10:07:50Z,42.805,6.029,13.2986,4.59983,2470.11,2021-3-06T12:08:56Z
2021-03-06T10:10:53Z,42.805,6.029,13.2981,4.59992,2470.194,2021-3-06T12:11:59Z
2021-03-06T10:13:56Z,42.805,6.029,13.2988,4.59986,2470.147,2021-3-06T12:15:02Z
2021-03-06T10:17:00Z,42.805,6.029,13.2982,4.59986,2470.147,2021-3-06T12:18:05Z
2021-03-06T10:20:03Z,42.805,6.029,13.2980,4.59988,2470.133,2021-3-06T12:21:08Z
2021-03-06T10:23:06Z,42.805,6.029,13.2982,4.59986,2470.133,2021-3-06T12:24:11Z
2021-03-06T10:26:09Z,42.805,6.029,13.2983,4.59983,2470.156,2021-3-06T12:27:14Z
2021-03-06T10:29:12Z,42.805,6.029,13.2980,4.59986,2470.133,2021-3-06T12:30:18Z
2021-03-06T10:32:15Z,42.805,6.029,13.2983,4.59984,2470.11,2021-3-06T12:33:21Z
2021-03-06T10:35:18Z,42.805,6.029,13.2988,4.59986,2470.156,2021-3-06T12:36:24Z
2021-03-06T10:38:21Z,42.805,6.029,13.2983,4.59990,2470.156,2021-3-06T12:39:27Z
2021-03-06T10:41:25Z,42.805,6.029,13.2979,4.59989,2470.133,2021-3-06T12:42:30Z
2021-03-06T10:44:28Z,42.805,6.029,13.2980,4.59986,2470.171,2021-3-06T12:45:33Z
2021-03-06T10:47:31Z,42.805,6.029,13.2982,4.59985,2470.171,2021-3-06T12:48:36Z
2021-03-06T10:50:34Z,42.805,6.029,13.2980,4.59982,2470.133,2021-3-06T12:51:39Z
2021-03-06T10:53:37Z,42.805,6.029,13.2983,4.59985,2470.156,2021-3-06T12:54:43Z
2021-03-06T10:56:40Z,42.805,6.029,13.2988,4.59985,2470.18,2021-3-06T12:57:46Z
2021-03-06T10:59:43Z,42.805,6.029,13.2984,4.59986,2470.156,2021-3-06T13:00:49Z
2021-03-06T11:02:46Z,42.805,6.029,13.2984,4.59984,2470.133,2021-3-06T13:03:52Z
2021-03-06T11:05:50Z,42.805,6.029,13.2988,4.59986,2470.156,2021-3-06T13:06:55Z
2021-03-06T11:08:53Z,42.805,6.029,13.2987,4.59990,2470.194,2021-3-06T13:09:58Z
2021-03-06T11:11:56Z,42.805,6.029,13.2979,4.59989,2470.171,2021-3-06T13:13:01Z
2021-03-06T11:14:59Z,42.805,6.029,13.2982,4.59985,2470.156,2021-3-06T13:16:04Z
2021-03-06T11:18:02Z,42.805,6.029,13.2984,4.59984,2470.156,2021-3-06T13:19:07Z
2021-03-06T11:21:05Z,42.805,6.029,13.2977,4.59983,2470.194,2021-3-06T13:22:11Z
2021-03-06T11:24:08Z,42.805,6.029,13.2981,4.59985,2470.171,2021-3-06T13:25:14Z
2021-03-06T11:27:11Z,42.805,6.029,13.2983,4.59985,2470.156,2021-3-06T13:28:17Z
2021-03-06T11:30:15Z,42.805,6.029,13.2980,4.59984,2470.18,2021-3-06T13:31:20Z
2021-03-06T11:33:18Z,42.805,6.029,13.2979,4.59984,2470.194,2021-3-06T13:34:23Z
2021-03-06T11:36:21Z,42.805,6.029,13.2984,4.59984,2470.156,2021-3-06T13:37:26Z
2021-03-06T11:39:24Z,42.805,6.029,13.2981,4.59986,2470.18,2021-3-06T13:40:29Z
2021-03-06T11:42:27Z,42.805,6.029,13.2980,4.59986,2470.18,2021-3-06T13:43:32Z
2021-03-06T11:45:30Z,42.805,6.029,13.2982,4.59983,2470.194,2021-3-06T13:46:36Z
2021-03-06T11:48:33Z,42.805,6.029,13.2983,4.59983,2470.194,2021-3-06T13:49:39Z
2021-03-06T11:51:36Z,42.805,6.029,13.2982,4.59984,2470.147,2021-3-06T13:52:42Z
2021-03-06T11:54:40Z,42.805,6.029,13.2982,4.59983,2470.156,2021-3-06T13:55:45Z
2021-03-06T11:57:43Z,42.805,6.029,13.2985,4.59983,2470.156,2021-3-06T13:58:48Z
2021-03-06T12:00:46Z,42.805,6.029,13.2984,4.59990,2470.156,2021-3-06T14:01:51Z
2021-03-06T12:03:49Z,42.805,6.029,13.2984,4.59985,2470.156,2021-3-06T14:04:54Z
2021-03-06T12:06:52Z,42.805,6.029,13.2982,4.59986,2470.171,2021-3-06T14:07:57Z
2021-03-06T12:09:55Z,42.805,6.029,13.2981,4.59984,2470.156,2021-3-06T14:11:01Z
2021-03-06T12:12:58Z,42.805,6.029,13.2976,4.59986,2470.147,2021-3-06T14:14:04Z
2021-03-06T12:16:01Z,42.805,6.029,13.2976,4.59982,2470.156,2021-3-06T14:17:07Z
2021-03-06T12:19:05Z,42.805,6.029,13.2982,4.59987,2470.147,2021-3-06T14:20:10Z
2021-03-06T12:22:08Z,42.805,6.029,13.2983,4.59983,2470.156,2021-3-06T14:23:13Z
2021-03-06T12:25:11Z,42.805,6.029,13.2979,4.59984,2470.156,2021-3-06T14:26:16Z
2021-03-06T12:28:14Z,42.805,6.029,13.2983,4.59984,2470.147,2021-3-06T14:29:19Z
2021-03-06T12:31:17Z,42.805,6.029,13.2986,4.59984,2470.156,2021-3-06T14:32:22Z
2021-03-06T12:34:20Z,42.805,6.029,13.2981,4.59984,2470.133,2021-3-06T14:35:26Z
2021-03-06T12:37:23Z,42.805,6.029,13.2981,4.59988,2470.147,2021-3-06T14:38:29Z
2021-03-06T12:40:26Z,42.805,6.029,13.2983,4.59985,2470.133,2021-3-06T14:41:32Z
2021-03-06T12:43:30Z,42.805,6.029,13.2980,4.59983,2470.133,2021-3-06T14:44:35Z
2021-03-06T12:46:33Z,42.805,6.029,13.2979,4.59986,2470.147,2021-3-06T14:47:38Z
2021-03-06T12:49:36Z,42.805,6.029,13.2981,4.59991,2470.156,2021-3-06T14:50:41Z
2021-03-06T12:52:39Z,42.805,6.029,13.2980,4.59983,2470.171,2021-3-06T14:53:44Z
2021-03-06T12:55:42Z,42.805,6.029,13.2980,4.59987,2470.147,2021-3-06T14:56:47Z
2021-03-06T12:58:45Z,42.805,6.029,13.2981,4.59982,2470.133,2021-3-06T14:59:51Z
2021-03-06T13:01:48Z,42.805,6.029,13.2981,4.59985,2470.133,2021-3-06T15:02:54Z
2021-03-06T13:04:51Z,42.805,6.029,13.2981,4.59988,2470.124,2021-3-06T15:05:57Z
2021-03-06T13:07:54Z,42.805,6.029,13.2982,4.59984,2470.147,2021-3-06T15:09:00Z
2021-03-06T13:10:58Z,42.805,6.029,13.2983,4.59989,2470.124,2021-3-06T15:12:03Z
2021-03-06T13:14:01Z,42.805,6.029,13.2976,4.59981,2470.133,2021-3-06T15:15:06Z
2021-03-06T13:17:04Z,42.805,6.029,13.2978,4.59983,2470.133,2021-3-06T15:18:09Z
2021-03-06T13:20:07Z,42.805,6.029,13.2982,4.59985,2470.133,2021-3-06T15:21:12Z
2021-03-06T13:23:10Z,42.805,6.029,13.2979,4.59986,2470.147,2021-3-06T15:24:16Z
2021-03-06T13:26:13Z,42.805,6.029,13.2977,4.59988,2470.133,2021-3-06T15:27:19Z
2021-03-06T13:29:16Z,42.805,6.029,13.2980,4.59986,2470.11,2021-3-06T15:30:22Z
2021-03-06T13:32:19Z,42.805,6.029,13.2978,4.59983,2470.147,2021-3-06T15:33:25Z
2021-03-06T13:35:23Z,42.805,6.029,13.2982,4.59991,2470.147,2021-3-06T15:36:28Z
2021-03-06T13:38:26Z,42.805,6.029,13.2979,4.59985,2470.124,2021-3-06T15:39:31Z
2021-03-06T13:41:29Z,42.805,6.029,13.2983,4.59982,2470.133,2021-3-06T15:42:34Z
2021-03-06T13:44:32Z,42.805,6.029,13.2980,4.59983,2470.124,2021-3-06T15:45:37Z
2021-03-06T13:47:35Z,42.805,6.029,13.2978,4.59983,2470.156,2021-3-06T15:48:41Z
2021-03-06T13:50:38Z,42.805,6.029,13.2977,4.59988,2470.133,2021-3-06T15:51:44Z
2021-03-06T13:53:41Z,42.805,6.029,13.2980,4.59988,2470.147,2021-3-06T15:54:47Z
2021-03-06T13:56:44Z,42.805,6.029,13.2978,4.59985,2470.11,2021-3-06T15:57:50Z
2021-03-06T13:59:48Z,42.805,6.029,13.2979,4.59984,2470.124,2021-3-06T16:00:53Z
2021-03-06T14:02:51Z,42.805,6.029,13.2980,4.59984,2470.087,2021-3-06T16:03:56Z
2021-03-06T14:05:54Z,42.805,6.029,13.2982,4.59984,2470.1,2021-3-06T16:06:59Z
2021-03-06T14:08:57Z,42.805,6.029,13.2979,4.59983,2470.124,2021-3-06T16:10:02Z
2021-03-06T14:12:00Z,42.805,6.029,13.2979,4.59996,2470.133,2021-3-06T16:13:06Z
2021-03-06T14:15:03Z,42.805,6.029,13.2980,4.59991,2470.124,2021-3-06T16:16:09Z
2021-03-06T14:18:06Z,42.805,6.029,13.2976,4.59984,2470.087,2021-3-06T16:19:12Z
2021-03-06T14:21:09Z,42.805,6.029,13.2982,4.59984,2470.087,2021-3-06T16:22:15Z
2021-03-06T14:24:13Z,42.805,6.029,13.2979,4.59988,2470.147,2021-3-06T16:25:18Z
2021-03-06T14:27:16Z,42.805,6.029,13.2978,4.59986,2470.147,2021-3-06T16:28:21Z
2021-03-06T14:30:19Z,42.805,6.029,13.2983,4.59984,2470.124,2021-3-06T16:31:24Z
2021-03-06T14:33:22Z,42.805,6.029,13.2979,4.59986,2470.124,2021-3-06T16:34:27Z
2021-03-06T14:36:25Z,42.805,6.029,13.2980,4.59984,2470.087,2021-3-06T16:37:31Z
2021-03-06T14:39:28Z,42.805,6.029,13.2983,4.59992,2470.087,2021-3-06T16:40:34Z
2021-03-06T14:42:31Z,42.805,6.029,13.2977,4.59984,2470.087,2021-3-06T16:43:37Z
2021-03-06T14:45:34Z,42.805,6.029,13.2980,4.59984,2470.124,2021-3-06T16:46:40Z
2021-03-06T14:48:38Z,42.805,6.029,13.2979,4.59984,2470.133,2021-3-06T16:49:43Z
2021-03-06T14:51:41Z,42.805,6.029,13.2982,4.59986,2470.133,2021-3-06T16:52:46Z
2021-03-06T14:54:44Z,42.805,6.029,13.2983,4.59991,2470.1,2021-3-06T16:55:49Z
2021-03-06T14:57:47Z,42.805,6.029,13.2983,4.59983,2470.1,2021-3-06T16:58:52Z
2021-03-06T15:00:50Z,42.805,6.029,13.2979,4.59984,2470.04,2021-3-06T17:01:56Z
2021-03-06T15:03:53Z,42.805,6.029,13.2979,4.59982,2470.063,2021-3-06T17:04:59Z
2021-03-06T15:06:56Z,42.805,6.029,13.2979,4.59982,2470.063,2021-3-06T17:08:02Z
2021-03-06T15:09:59Z,42.805,6.029,13.2979,4.59988,2470.087,2021-3-06T17:11:05Z
2021-03-06T15:13:03Z,42.805,6.029,13.2984,4.59982,2470.087,2021-3-06T17:14:08Z